星链-33863 (STARLINK-33863)

导读

STARLINK-33863是美国太空探索技术公司(SpaceX)星链(Starlink)星座中的一颗低轨互联网通信卫星,于2025年5月10日由美国发射升空。星链项目旨在构建全球卫星互联网系统,为全球提供高速低延迟的宽带网络服务,该卫星的入轨进一步扩充了星链星座的组网规模与服务覆盖能力。

基本信息
目录编号:
63864
目录名称:
STARLINK-33863
国际标识:
2025-094A
轨道中心:
EARTH
卫星名称:
星链-33863
卫星全名:
星链-33863 (STARLINK-33863)
卫星状态:
在轨 (已飞行483 天)
发射日期:
2025-05-10 UTC
国别 :
美国 (US)
星等 :
--
轨道信息
数据来源 国际轨道数据
星历时间: 2026-09-05T04:00:02+0800
7小时前
查看轨道信息
半长轴: 6869.591km
偏心率: 0.0005145
轨道倾角: 70.002°
近地点辐角 279.455°
升交点赤经 142.571°
平近点角 55.675°
近地点: 487.919km
远地点: 494.989km
周期: 94.440分钟
每日圈数: 15.247775
详细信息
固有亮度:
5
最大亮度:
2.5
卫星平台:
Starlink V1.0
覆盖范围:
全球
运营商:
太空探索技术公司
运营商所在国:
美国
制造商(研发单位):
太空探索技术公司
制造商所在国:
美国
使用方式:
暂无
卫星简介
Starlink 计划是 SpaceX 推出的全球卫星互联网项目,通过发射低轨道卫星,为全球尤其是偏远地区提供高速、低延迟的互联网服务。自 2019 年起,Starlink 已部署数千颗卫星,旨在缩小全球数字鸿沟,推动互联网普及。该项目还为军事、航空等行业提供通信支持,带来广泛经济效益。
2D轨道图
3D轨道图
轨道高度分析图
轨道倾角分析图
轨道综合分析图
查看轨道综合分析图
交会数据列表
事件ID 空间交会对象 最接近时刻(TCA) 交会距离 交会风险概率(CRP) 交会风险指数(CRI) 操作
CDM_260905-150605-535006-386421
2026-09-05T
15:06:40+0000
0.124 km
中距离
1.048306E-3 极高风险 0.95
CDM_260906-174904-976006-386421
2026-09-06T
17:49:41+0000
0.191 km
中距离
7.483202E-4 高风险 0.92
CDM_260906-122306-044406-386421
2026-09-06T
12:23:42+0000
0.205 km
中距离
5.613321E-4 高风险 0.9
CDM_260905-063106-386406-649821
2026-09-05T
06:31:22+0000
1.291 km
极远距离
7.859096E-6 低风险 0.53
CDM_260905-124606-386406-749321
2026-09-05T
12:46:42+0000
1.359 km
极远距离
7.721309E-6 低风险 0.53
CDM_260905-124606-386406-718121
2026-09-05T
12:46:14+0000
1.771 km
极远距离
3.377949E-6 低风险 0.46
CDM_260906-013906-386406-524321
2026-09-06T
01:39:15+0000
1.934 km
极远距离
3.099819E-6 低风险 0.45
CDM_260905-164005-535006-386421
2026-09-05T
16:40:51+0000
2.044 km
极远距离
2.346586E-6 低风险 0.42
CDM_260830-113406-386406-869721
OBJECT G (68697)
2026-08-30T
11:34:27+0000
2.223 km
极远距离
2.232245E-6 低风险 0.42
CDM_260905-054406-386406-649821
2026-09-05T
05:44:16+0000
2.239 km
极远距离
1.612655E-6 低风险 0.39